Regional Weather Roundup
Issued by NWS Kansas City/Pleasant Hill, MO

Home | Current Version | Previous Version | Text Only | Print | Product List | Glossary On
Versions: 1 2 3 4 5 6 7 8 9 10 11 12 13 14 15 16 17 18 19 20 21 22 23 24 25 26 27 28 29 30 31 32 33 34 35 36 37 38 39 40 41 42 43 44 45 46 47 48 49 50
000
ASUS43 KEAX 180311
RWREAX

WEATHER ROUNDUP FOR EASTERN KANSAS AND NORTHWEST MISSOURI
NATIONAL WEATHER SERVICE KANSAS CITY/PLEASANT HILL MO
1000 PM CDT WED SEP 17 2014

KSZ040-057-103>105-MOZ028-029-037-043-180400-
...KANSAS CITY METROPOLITAN AREA...

CITY           SKY/WX    TMP DP  RH WIND       PRES   REMARKS
K.C. INTL      CLEAR     66  63  90 E6        29.94R
K.C. DOWNTOWN  CLEAR     67  64  90 E6        29.93R
LEES SUMMIT    CLEAR     66  64  93 NE6       29.94R
OLATHE - IXD   MOCLDY    66  65  96 E6        29.94R
OLATHE - OJC   CLEAR     66  65  96 E5        29.93R FOG
LAWRENCE       CLEAR     63  61  93 SE5       29.93R FOG

$$

MOZ001>008-011>017-020>025-030>033-038>040-044>046-053-054-180400-
...NORTHERN AND CENTRAL MISSOURI...

CITY           SKY/WX    TMP DP  RH WIND       PRES   REMARKS
ST. JOSEPH     CLEAR     65  64  97 CALM      29.94R
MOSBY          FOG       61  61 100 CALM      29.94R VSB 1/4
WHITEMAN AFB   NOT AVBL
CLINTON        MOCLDY    70  66  88 NE12      29.94R
SEDALIA        MOCLDY    65  62  90 E7        29.96R FOG
WARSAW         NOT AVBL
MARSHALL       MOCLDY    64  64 100 E7        29.97S
CHILLICOTHE      N/A     66  62  87 E5        29.97R
MOBERLY        CLOUDY    61  55  82 E7        29.99R FOG
KIRKSVILLE     CLEAR     61  58  90 E5        30.00R

$$

MOZ041-047>049-056>058-063>065-088>090-097-180400-
...EASTERN AND SOUTHERN MISSOURI...

CITY           SKY/WX    TMP DP  RH WIND       PRES   REMARKS
ST. LOUIS INTL CLOUDY    63  55  75 CALM      30.00R
SPIRIT OF STL  CLOUDY    62  58  86 E5        29.98R
COLUMBIA         N/A    N/A N/A N/A MISG        N/A
JEFFERSON CITY CLOUDY    63  61  93 NE7       29.96R
MEXICO         CLOUDY   N/A N/A N/A E7        29.99R FOG
HANNIBAL       CLEAR     59  57  94 SE3       30.00R
ROLLA          CLOUDY    62  61  96 E3        29.96R FOG
OSAGE BEACH    CLOUDY    66  63  88 E5        29.95R
SPRINGFIELD    MOCLDY    65  63  93 E3        29.94R
BRANSON        PTCLDY    64  63  94 E5        29.96R
NEVADA         MOCLDY    70  68  94 CALM      29.94R
JOPLIN         PTCLDY    68  63  84 S5        29.91R
WEST PLAINS    CLOUDY    62  61  96 E6        29.99R FOG

$$

IAZ060-094-KSZ022-034>040-054-083-096-NEZ052-066-093-180400-
...KANSAS...SOUTHEAST NEBRASKA AND IOWA...

CITY           SKY/WX    TMP DP  RH WIND       PRES   REMARKS
TOPEKA         CLEAR     66  65  96 E3        29.93R FOG
MANHATTAN      CLEAR     69  66  90 E6        29.92R
EMPORIA        CLEAR     69  67  93 E9        29.91R
CHANUTE        PTCLDY    73  70  90 E8        29.90R
WICHITA        MOCLDY    81  67  62 E8        29.85R
OMAHA          CLEAR     70  59  68 VRB5      29.95R
LINCOLN        PTCLDY    69  61  75 S3        29.95R
FALLS CITY     CLEAR     65  63  93 E3        29.94R
LAMONI         CLEAR     63  59  87 E5        29.98R
DES MOINES     CLEAR     66  57  72 E7        29.99R

$$



USA.gov is the U.S. government's official web portal to all federal, state and local government web resources and services.